Weather History for KMRF - August, 2013

Change the Weather History Date:

Thursday, August 29, 2013

  Actual Average Record
Temperature  
Mean Temperature 72 °F -  
Max Temperature 87 °F 82 °F - (-1)
Min Temperature 57 °F 56 °F - (-1)
Cooling Degree Days 7    
Growing Degree Days 22 (Base 50)    
Moisture  
Dew Point 54 °F    
Average Humidity 55    
Maximum Humidity 88    
Minimum Humidity 30    
Precipitation  
Precipitation 0.00 in - - ()
Sea Level Pressure  
Sea Level Pressure 30.27 in    
Wind  
Wind Speed 3 mph (ESE)    
Max Wind Speed 9 mph    
Max Gust Speed -    
Visibility 10 miles    
Events      
Averages and records for this station are not official NWS values.
T = Trace of Precipitation, MM = Missing Value Source: NWS Daily Summary

Daily Weather History Graph

Daily Weather History Graph

Search for Another Location

Airport or City:

Trip Planner

Search our weather history database for the weather conditions in past years. The results will help you decide how hot, cold, wet, or windy it might be!

Date:

Astronomy

Aug. 29, 2013 Rise Set
Actual Time 7:31 AM CDT 8:21 PM CDT
Civil Twilight 7:06 AM CDT 8:46 PM CDT
Nautical Twilight 6:37 AM CDT 9:15 PM CDT
Astronomical Twilight 6:07 AM CDT 9:45 PM CDT
Moon 1:36 AM CDT (8/29) 3:40 PM CDT (8/29)
Length of Visible Light 13h 39m
Length of Day
12h 50m
Last Quarter, 38% of the Moon is Illuminated
Aug 29
Last Quarter
Sep 5
New
Sep 12
First Quarter
Sep 19
Full
Sep 26
Last Quarter

Hourly Weather History & Observations

Time (CDT) Temp. Heat Index Dew Point Humidity Pressure Visibility Wind Dir Wind Speed Gust Speed Precip Events Conditions
12:15 AM 64.4 °F - 53.6 °F 68% 30.27 in 10.0 mi Calm Calm - N/A   Clear
12:35 AM 68.0 °F - 53.6 °F 60% 30.27 in 10.0 mi Calm Calm - N/A   Clear
12:55 AM 68.0 °F - 53.6 °F 60% 30.28 in 10.0 mi East 3.5 mph - N/A   Clear
1:15 AM 66.2 °F - 53.6 °F 64% 30.28 in 10.0 mi Calm Calm - N/A   Clear
1:35 AM 66.2 °F - 53.6 °F 64% 30.28 in 10.0 mi ESE 3.5 mph - N/A   Clear
1:55 AM 64.4 °F - 53.6 °F 68% 30.27 in 10.0 mi Calm Calm - N/A   Clear
2:15 AM 62.6 °F - 53.6 °F 72% 30.27 in 10.0 mi Calm Calm - N/A   Clear
2:35 AM 62.6 °F - 53.6 °F 72% 30.27 in 10.0 mi Calm Calm - N/A   Clear
2:55 AM 62.6 °F - 53.6 °F 72% 30.27 in 10.0 mi Calm Calm - N/A   Clear
3:15 AM 60.8 °F - 53.6 °F 77% 30.27 in 10.0 mi Calm Calm - N/A   Clear
3:35 AM 60.8 °F - 53.6 °F 77% 30.27 in 10.0 mi Calm Calm - N/A   Clear
3:55 AM 60.8 °F - 53.6 °F 77% 30.27 in 10.0 mi North 4.6 mph - N/A   Clear
4:15 AM 60.8 °F - 53.6 °F 77% 30.27 in 10.0 mi Calm Calm - N/A   Clear
4:35 AM 60.8 °F - 53.6 °F 77% 30.27 in 10.0 mi Calm Calm - N/A   Clear
4:55 AM 59.0 °F - 53.6 °F 82% 30.27 in 10.0 mi North 3.5 mph - N/A   Clear
5:15 AM 60.8 °F - 53.6 °F 77% 30.27 in 10.0 mi NE 4.6 mph - N/A   Clear
5:35 AM 57.2 °F - 53.6 °F 88% 30.27 in 10.0 mi North 3.5 mph - N/A   Clear
5:55 AM 57.2 °F - 53.6 °F 88% 30.27 in 10.0 mi North 4.6 mph - N/A   Clear
6:15 AM 57.2 °F - 53.6 °F 88% 30.27 in 10.0 mi NNW 3.5 mph - N/A   Clear
6:35 AM 57.2 °F - 53.6 °F 88% 30.28 in 10.0 mi North 4.6 mph - N/A   Clear
6:55 AM 57.2 °F - 53.6 °F 88% 30.28 in 10.0 mi NNE 4.6 mph - N/A   Clear
7:15 AM 57.2 °F - 53.6 °F 88% 30.28 in 10.0 mi NNE 5.8 mph - N/A   Clear
7:35 AM 57.2 °F - 53.6 °F 88% 30.28 in 10.0 mi North 6.9 mph - N/A   Clear
7:55 AM 59.0 °F - 55.4 °F 88% 30.29 in 10.0 mi North 4.6 mph - N/A   Clear
8:15 AM 60.8 °F - 55.4 °F 82% 30.30 in 10.0 mi NNW 4.6 mph - N/A   Clear
8:35 AM 62.6 °F - 57.2 °F 82% 30.30 in 10.0 mi Calm Calm - N/A   Clear
8:55 AM 66.2 °F - 57.2 °F 73% 30.31 in 10.0 mi Calm Calm - N/A   Clear
9:15 AM 69.8 °F - 57.2 °F 64% 30.32 in 10.0 mi Calm Calm - N/A   Clear
9:35 AM 69.8 °F - 57.2 °F 64% 30.32 in 10.0 mi SSE 3.5 mph - N/A   Clear
9:55 AM 73.4 °F - 57.2 °F 57% 30.32 in 10.0 mi South 6.9 mph - N/A   Clear
10:15 AM 73.4 °F - 57.2 °F 57% 30.33 in 10.0 mi SSW 9.2 mph - N/A   Clear
10:35 AM 75.2 °F - 55.4 °F 50% 30.33 in 10.0 mi South 6.9 mph - N/A   Clear
10:55 AM 77.0 °F - 55.4 °F 47% 30.33 in 10.0 mi South 5.8 mph - N/A   Clear
11:15 AM 77.0 °F - 55.4 °F 47% 30.33 in 10.0 mi South 8.1 mph - N/A   Clear
11:35 AM 78.8 °F - 55.4 °F 44% 30.33 in 10.0 mi SE 8.1 mph - N/A   Clear
11:55 AM 78.8 °F - 57.2 °F 47% 30.33 in 10.0 mi ESE 6.9 mph - N/A   Clear
12:15 PM 80.6 °F 80.8 °F 57.2 °F 45% 30.32 in 10.0 mi South 4.6 mph - N/A   Clear
12:35 PM 80.6 °F 80.8 °F 57.2 °F 45% 30.32 in 10.0 mi South 5.8 mph - N/A   Partly Cloudy
12:55 PM 80.6 °F 80.8 °F 57.2 °F 45% 30.31 in 10.0 mi Calm Calm - N/A   Clear
1:15 PM 82.4 °F 82.0 °F 57.2 °F 42% 30.31 in 10.0 mi East 4.6 mph - N/A   Clear
1:35 PM 82.4 °F 81.7 °F 55.4 °F 39% 30.30 in 10.0 mi Calm Calm - N/A   Clear
1:55 PM 82.4 °F 81.7 °F 55.4 °F 39% 30.29 in 10.0 mi Calm Calm - N/A   Clear
2:15 PM 84.2 °F 83.5 °F 57.2 °F 40% 30.28 in 10.0 mi SSE 8.1 mph - N/A   Scattered Clouds
2:35 PM 86.0 °F 84.9 °F 57.2 °F 37% 30.28 in 10.0 mi SSW 5.8 mph - N/A   Mostly Cloudy
2:55 PM 84.2 °F 83.0 °F 55.4 °F 37% 30.27 in 10.0 mi SE 3.5 mph - N/A   Partly Cloudy
3:15 PM 86.0 °F 84.5 °F 55.4 °F 35% 30.26 in 10.0 mi West 3.5 mph - N/A   Partly Cloudy
3:35 PM 86.0 °F 84.5 °F 55.4 °F 35% 30.25 in 10.0 mi West 3.5 mph - N/A   Mostly Cloudy
3:55 PM 84.2 °F 83.0 °F 55.4 °F 37% 30.25 in 10.0 mi NNE 5.8 mph - N/A   Overcast
4:15 PM 84.2 °F 83.0 °F 55.4 °F 37% 30.24 in 10.0 mi NNW 3.5 mph - N/A   Mostly Cloudy
4:35 PM 86.0 °F 84.5 °F 55.4 °F 35% 30.23 in 10.0 mi West 5.8 mph - N/A   Partly Cloudy
4:55 PM 87.8 °F 86.1 °F 55.4 °F 33% 30.22 in 10.0 mi East 8.1 mph - N/A   Mostly Cloudy
5:15 PM 87.8 °F 86.1 °F 55.4 °F 33% 30.22 in 10.0 mi NE 9.2 mph - N/A   Overcast
5:35 PM 84.2 °F 83.0 °F 55.4 °F 37% 30.22 in 10.0 mi East 4.6 mph - N/A   Overcast
5:55 PM 84.2 °F 82.8 °F 53.6 °F 35% 30.22 in 10.0 mi South 5.8 mph - N/A   Mostly Cloudy
6:15 PM 84.2 °F 83.0 °F 55.4 °F 37% 30.22 in 10.0 mi South 8.1 mph - N/A   Partly Cloudy
6:35 PM 84.2 °F 83.0 °F 55.4 °F 37% 30.21 in 10.0 mi South 3.5 mph - N/A   Scattered Clouds
6:55 PM 84.2 °F 83.0 °F 55.4 °F 37% 30.21 in 10.0 mi SSW 4.6 mph - N/A   Mostly Cloudy
7:15 PM 84.2 °F 83.0 °F 55.4 °F 37% 30.21 in 10.0 mi SSW 3.5 mph - N/A   Mostly Cloudy
7:35 PM 84.2 °F 82.8 °F 53.6 °F 35% 30.21 in 10.0 mi Calm Calm - N/A   Scattered Clouds
7:55 PM 84.2 °F 82.8 °F 53.6 °F 35% 30.21 in 10.0 mi ESE 3.5 mph - N/A   Scattered Clouds
8:15 PM 82.4 °F - 48.2 °F 30% 30.22 in 10.0 mi ESE 8.1 mph - N/A   Overcast
8:35 PM 80.6 °F - 48.2 °F 32% 30.22 in 10.0 mi SE 8.1 mph - N/A   Overcast
8:55 PM 78.8 °F - 46.4 °F 32% 30.23 in 10.0 mi SSE 4.6 mph - N/A   Mostly Cloudy
9:15 PM 77.0 °F - 46.4 °F 34% 30.24 in 10.0 mi SSE 4.6 mph - N/A   Partly Cloudy
9:35 PM 75.2 °F - 46.4 °F 36% 30.24 in 10.0 mi SSE 4.6 mph - N/A   Scattered Clouds
9:55 PM 73.4 °F - 46.4 °F 38% 30.25 in 10.0 mi SE 3.5 mph - N/A   Mostly Cloudy
10:15 PM 73.4 °F - 46.4 °F 38% 30.25 in 10.0 mi SE 5.8 mph - N/A   Mostly Cloudy
10:35 PM 71.6 °F - 46.4 °F 41% 30.26 in 10.0 mi ESE 3.5 mph - N/A   Partly Cloudy
10:55 PM 69.8 °F - 46.4 °F 43% 30.26 in 10.0 mi SE 3.5 mph - N/A   Clear
11:15 PM 69.8 °F - 46.4 °F 43% 30.26 in 10.0 mi Calm Calm - N/A   Clear
11:35 PM 64.4 °F - 46.4 °F 52% 30.27 in 10.0 mi NNW 4.6 mph - N/A   Clear
11:55 PM 68.0 °F - 48.2 °F 49% 30.27 in 10.0 mi East 3.5 mph - N/A   Clear